Terug naar catalogus

STARLINK-35987

ActiefCommunicatieVLEO
NORAD 66860·PAYLOAD·🇺🇸 United States

Gelanceerd Dec 2, 2025 vanaf Cape Canaveral Space Force Station

Loading…

Volgende Passages (komende 24 uur)

TLE

VersSource: CelesTrak SupGP

Epoch: Sep 15, 2026, 02:47 UTC

1 66860C 25281N   26258.11645833  .00032770  00000+0  11873-2 0  2586
2 66860  43.0016 353.5177 0001496 270.9301 241.9039 15.27551872    17

Volg STARLINK-35987 in realtime met AllMySat

Download on the App Store